#timestamp,LO_Frequency,Hit,StdDev 
1507536015.9,286047000.7,N
1507536035.7,286046998.8,N
1507536055.5,286047001.2,N
1507536075.4,286047000.0,N
1507536095.2,286047000.7,N
1507536115.0,286047000.5,N
1507536116.0,286047000.5,N
1507536135.8,286047002.2,N
1507536155.6,286047003.7,N
1507536175.5,286047003.8,N
1507536195.3,286047005.7,N
1507536215.1,286047003.0,N
1507536235.9,286047004.1,N
1507536255.7,286047003.8,N
1507536275.6,286047003.4,N
1507536295.4,286047005.6,N
1507536315.2,286047004.0,N
1507536335.1,286047003.9,N
1507536336.0,286047003.9,N
1507536355.8,286047003.7,N
1507536375.7,286047003.5,N
1507536395.5,286047003.8,N
1507536415.3,286047002.1,N
1507536435.2,286047000.1,N
1507536455.0,286047000.6,N
1507536455.9,286047000.6,N
1507536475.8,286047002.3,N
1507536495.6,286046999.7,N
1507536515.4,286046999.8,N
1507536535.3,286046999.8,N
1507536555.1,286047000.6,N
1507536575.8,286047000.4,N
1507536595.7,286046999.8,N
1507536615.5,286047000.2,N
1507536635.4,286047002.4,N
1507536655.2,286047002.4,N
1507536675.0,286047003.6,N
1507536675.9,286047003.6,N
1507536695.8,286047003.0,N
1507536715.6,286047005.8,Y
1507536735.4,286047001.6,P
1507536755.3,286047001.8,P
1507536775.1,286047002.2,P
1507536795.9,286047002.6,Y
1507536815.7,286047000.8,P
1507536835.5,286046999.0,N
1507536855.4,286046998.2,N
1507536875.2,286046998.1,N
1507536895.1,286047000.5,N
1507536896.0,286047000.5,N
1507536915.8,286046999.5,N
1507536935.6,286046999.5,N
1507536955.5,286046999.6,N
1507536975.3,286046999.5,N
1507536995.1,286046998.9,N
1507537015.9,286046998.7,N
1507537035.7,286046999.4,N
1507537055.6,286046998.7,N
1507537075.4,286046998.9,N
1507537095.2,286046998.3,N
1507537115.1,286046999.5,N
1507537116.0,286046999.5,N
1507537135.8,286046998.7,N
1507537155.6,286046998.7,N
1507537175.5,286046998.1,N
1507537195.3,286047000.8,N
1507537215.2,286046998.5,N
1507537235.9,286047000.5,N
1507537255.7,286046998.9,N
1507537275.6,286046996.8,Y
1507537295.4,286046997.6,P
1507537315.2,286046996.9,P
1507537335.1,286046998.7,N
1507537336.0,286046998.7,N
1507537355.8,286047001.2,N
1507537375.7,286046998.3,N
1507537395.5,286046999.1,N
1507537415.3,286046999.0,N
1507537435.2,286046996.6,Y
1507537455.0,286046999.0,P
1507537455.9,286046999.0,P
1507537475.8,286046998.4,P
1507537495.6,286046998.7,Y
1507537515.4,286047000.3,P
1507537535.3,286047000.5,N
1507537555.1,286047001.1,N
1507537575.8,286047001.2,N
1507537595.7,286046998.2,N
1507537615.5,286046999.4,N
1507537635.4,286046999.3,N
1507537655.2,286047001.0,N
1507537675.0,286047000.6,N
1507537675.9,286047000.6,N
1507537695.8,286046999.8,N
1507537715.6,286047002.4,N
1507537735.5,286047000.3,N
1507537755.3,286047000.5,N
1507537775.1,286046999.8,N
1507537795.9,286047002.2,N
1507537815.7,286047002.2,N
1507537835.5,286047002.8,N
1507537855.4,286047000.0,N
1507537875.2,286047000.5,N
1507537895.1,286047000.4,N
1507537896.0,286047000.4,N
1507537915.8,286047000.4,N
1507537935.6,286047002.8,N
1507537955.5,286046999.8,N
1507537975.3,286047002.2,N
1507537995.1,286047000.7,N
1507538015.9,286047000.8,N
1507538035.7,286046999.8,N
1507538055.6,286047002.8,N
1507538075.4,286047002.8,N
1507538095.2,286046999.7,N
1507538115.1,286047002.2,N
1507538116.0,286047002.2,N
1507538135.8,286047002.0,N
1507538155.6,286047002.6,N
1507538175.5,286047002.3,N
1507538195.3,286047001.1,N
1507538215.2,286047002.7,N
1507538235.9,286046999.7,N
1507538255.7,286047001.9,N
1507538275.6,286047002.6,N
1507538295.4,286047000.6,N
1507538315.2,286047000.0,N
1507538335.1,286047000.9,N
1507538336.0,286047000.9,N
1507538355.8,286047002.3,N
1507538375.7,286047002.7,N
1507538395.5,286047002.3,N
1507538415.3,286047002.8,N
1507538435.2,286047002.2,N
1507538455.0,286046999.7,N
1507538455.9,286046999.7,N
1507538475.8,286047001.9,N
1507538495.6,286047000.7,N
1507538515.4,286046998.7,N
1507538535.3,286046998.8,N
1507538555.1,286047001.1,N
1507538575.8,286047000.8,N
1507538595.7,286047000.0,N
1507538615.5,286046998.3,N
1507538635.3,286046999.3,N
1507538655.2,286047001.2,N
1507538675.0,286047000.9,N
1507538675.9,286047000.9,N
1507538695.8,286046998.6,N
1507538715.6,286046998.2,N
1507538735.4,286047001.2,N
1507538755.3,286046998.3,N
1507538775.1,286046999.3,N
1507538795.8,286046998.8,N
1507538815.7,286047001.1,N
1507538835.5,286046998.7,N
1507538855.4,286046998.9,N
1507538875.2,286046998.1,N
1507538895.0,286046998.4,N
1507538895.9,286046998.4,N
1507538915.8,286046997.8,N
1507538935.6,286046997.4,N
1507538955.4,286046997.3,N
1507538975.3,286046999.6,N
1507538995.1,286046996.6,N
1507539015.9,286046997.7,N
1507539035.7,286046997.2,N
1507539055.5,286046997.4,N
1507539075.4,286046995.1,Y
1507539095.2,286046997.8,P
1507539115.1,286046997.0,P
1507539116.0,286046997.0,P
1507539135.8,286046995.4,Y
1507539155.6,286046998.9,P
1507539175.5,286046999.2,N
1507539195.3,286046999.1,N
1507539215.2,286046998.3,N
1507539235.9,286046998.5,N
1507539255.7,286047001.2,N
1507539275.6,286047001.1,N
1507539295.4,286047002.3,N
1507539315.2,286047000.7,N
1507539335.1,286047000.8,N
1507539336.0,286047011.9,Y
1507539355.8,286047000.6,P
1507539375.7,286046999.3,N
1507539395.5,286047001.1,N
1507539415.3,286047000.3,N
1507539435.2,286047000.6,N
1507539455.0,286047000.0,N
1507539455.9,286047000.0,N
1507539475.8,286047000.9,N
1507539495.6,286046999.0,N
1507539515.4,286046999.0,N
1507539535.3,286046999.1,N
1507539555.1,286046996.5,Y
1507539575.8,286046998.8,P
1507539595.7,286046999.3,N
